www.pogodaiklimat.ru

Погода и климат >> Архив погоды >> Украина >> Геническ


АРХИВ ПОГОДЫ в Геническе

Время (UTC), дата Ветер
(напр.,м/с)
 
Видим.   Явления Облачность Т
(С)
Тd
(С)
f
(%)
Тe
(С)
Тes
(С)
Комфортность P
(гПа)
Po
(гПа)
Тmin
(С)
Tmax
(С)
R
(мм)
R24
(мм)
S
(см)
21 11.09 СВ 5 20 км ясно +19.8 +14.8 73 +22 +22 комфорт 1024.0 1022.2
00 12.09 С 4 20 км ясно +18.0 +12.4 70 +18 +18 1024.0 1022.2
03 12.09 СВ 3 20 км ясно +17.1 +11.1 68 +17 +17 1024.0 1022.2
06 12.09 В 4 20 км ясно +20.4 +16.6 79 +24 +26 комфорт 1025.0 1023.2 +17.0
09 12.09 СВ 3 20 км ясно +23.6 +16.4 64 +27 +36 жарко 1024.0 1022.2
12 12.09 В 3 20 км ясно +23.8 +16.8 65 +27 +34 жарко 1024.0 1022.2
15 12.09 В 2 20 км ясно +23.0 +14.3 58 +27 +27 душно 1023.0 1021.2
18 12.09 В 2 20 км ясно +21.6 +16.8 74 +26 +26 душно 1023.0 1021.2 +24.9
21 12.09 В 1 20 км ясно +17.9 +9.8 59 +19 +19 1024.0 1022.2
00 13.09 С 2 20 км ясно +16.2 +6.9 54 +16 +16 1023.0 1021.2
03 13.09 В 2 20 км ясно +14.5 +4.2 50 +14 +14 1023.0 1021.2
06 13.09 СВ 2 20 км ясно +19.5 +5.5 40 +21 +25 комфорт 1024.0 1022.2 +14.5
09 13.09 В 3 20 км ясно +23.3 +13.2 53 +26 +36 жарко 1023.0 1021.2
12 13.09 В 2 20 км 3/0
[Ci fib]
+24.5 +15.1 56 +27 +33 жарко 1022.0 1020.3
15 13.09 ЮВ 1 20 км 6/0
[Ci fib]
+22.6 +16.4 68 +27 +27 душно 1022.0 1020.2
18 13.09 штиль 0 20 км 3/0
[Ci fib]
+18.8 +16.0 84 +20 +20 1022.0 1020.2 +24.9
21 13.09 С 1 20 км ясно +16.6 +7.2 54 +18 +18 1022.0 1020.2
00 14.09 С 2 20 км ясно +16.0 +5.9 51 +16 +16 1021.0 1019.2
03 14.09 С 1 20 км ясно +13.7 +5.8 59 +14 +14 1021.0 1019.2
06 14.09 С 1 20 км ясно +20.4 +8.7 47 +23 +27 комфорт 1021.0 1019.2 +13.5
09 14.09 ЮВ 1 20 км ясно +24.6 +13.2 49 +27 +39 жарко 1020.0 1018.3
12 14.09 ЮВ 2 20 км 8/0
[Ac cast Ci]
+25.7 +15.4 53 +29 +34 душно 1018.6 1016.9
15 14.09 ЮЗ 1 20 км 10/8 600 м
[Cb calv Ci sp]
+24.9 +13.1 48 +27 +27 жарко 1017.0 1015.3
18 14.09 С 4 20 км 10/6 600 м
[Cb calv Ac cast Ci sp]
+23.2 +9.6 42 +25 +25 комфорт 1019.0 1017.2 +28.3
21 14.09 С 4 20 км 10/6 600 м
[Cb calv Ac und]
+20.4 +11.6 57 +22 +22 комфорт 1021.0 1019.2
00 15.09 С 3 20 км ясно +16.1 +6.8 54 +16 +16 1021.0 1019.2
03 15.09 С 2 20 км ясно +12.6 +6.2 65 +12 +12 1022.0 1020.2
06 15.09 СВ 3 20 км ясно +17.2 +6.1 48 +17 +20 1023.0 1021.2 +12.5
09 15.09 В 4 20 км ясно +21.2 +5.1 35 +22 +29 комфорт 1024.0 1022.2
12 15.09 Ю 2 20 км ясно +21.5 +6.2 37 +22 +30 комфорт 1024.0 1022.2
15 15.09 Ю 1 20 км ясно +20.8 +6.0 38 +23 +23 комфорт 1023.0 1021.2
18 15.09 штиль 0 20 км ясно +16.7 +10.5 67 +17 +17 1022.0 1020.2 +23.1
21 15.09 ЮЗ 1 20 км ясно +15.5 +10.7 73 +16 +16 1021.0 1019.2
00 16.09 СЗ 1 20 км ясно +13.2 +3.3 51 +14 +14 1020.0 1018.2
03 16.09 штиль 0 20 км ясно +11.5 +5.8 68 +11 +11 1019.0 1017.2
06 16.09 штиль 0 20 км ясно +18.0 +8.5 54 +18 +23 1019.0 1017.2 +11.4
09 16.09 З 1 20 км ясно +24.0 +9.2 39 +25 +37 комфорт 1017.0 1015.3
12 16.09 З 2 20 км ясно +25.9 +7.5 31 +26 +33 жарко 1015.0 1013.3
15 16.09 З 2 20 км ясно +22.5 +12.1 52 +25 +25 комфорт 1013.0 1011.3
18 16.09 СЗ 2 20 км ясно +18.8 +13.0 69 +20 +20 1013.0 1011.2 +26.7
21 16.09 З 4 20 км ясно +17.0 +12.9 77 +17 +17 1013.0 1011.2
00 17.09 З 3 20 км ясно +16.0 +13.3 84 +16 +16 1013.0 1011.2
03 17.09 ЮЗ 3 20 км ясно +16.1 +14.3 89 +16 +16 1012.0 1010.2
06 17.09 ЮЗ 3 20 км 3/0
[Ac lent]
+19.2 +15.7 80 +21 +23 комфорт 1011.0 1009.2 +16.0
09 17.09 З 5 20 км 8/6 600 м
[Cu Sc Ac und]
+25.4 +16.8 59 +29 +29 душно 1010.0 1008.3
12 17.09 З 4 20 км 10/8 600 м
[Cb calv Ac und]
+25.3 +11.5 42 +27 +27 жарко 1009.0 1007.3
15 17.09 СЗ 2 20 км 10/10 600 м
[Cb calv]
+23.0 +11.7 49 +25 +25 комфорт 1009.0 1007.3
18 17.09 СЗ 2 20 км 10/10 600 м
[Sc]
+19.5 +11.8 61 +21 +21 комфорт 1010.0 1008.2 +26.5
21 17.09 СЗ 1 20 км 4/0
[Ci]
+17.8 +11.1 65 +19 +19 1011.0 1009.2
00 18.09 штиль 0 20 км 9/9 600 м
[Sc]
+16.7 +14.0 84 +17 +17 1010.0 1008.2
03 18.09 ЮЗ 1 20 км 6/6 600 м
[Sc]
+16.5 +15.0 91 +17 +17 1009.0 1007.2
06 18.09 ЮЗ 5 20 км 6/0
[Ac cast]
+20.9 +15.9 73 +24 +25 комфорт 1008.0 1006.3 +16.4
09 18.09 З 9 20 км 10/6 600 м
[Cb calv Ac cast Ci]
+26.3 +15.9 53 +30 +30 душно 1007.0 1005.3
12 18.09 СЗ 13
{18}
20 км 10/10 600 м
[Cb calv]
+21.8 +11.5 52 +24 +24 комфорт 1010.0 1008.3
15 18.09 СЗ 8 20 км слаб. ливневой дождь 10/10 600 м
[Cb calv]
+15.4 +7.7 60 +14 +14 1013.0 1011.2
18 18.09 З 4
{18}
20 км {ливн. осадки} 8/8 600 м
[Cb calv]
+14.4 +5.7 56 +13 +13 1016.0 1014.2 +26.8 0.0

 

Местоположение метеостанции Геническ (Херсонская область, Украина): широта 46.17 долгота 34.82 высота над уровнем моря 15 м.

В архиве по умолчанию представлена погода в Геническе за последнюю неделю. Архивные данные за месяц целиком и за предыдущие месяцы, начиная с января 2011 года, Вы можете получить, выбрав интересующий диапазон дат из раскрывающегося списка и нажав кнопку "Ввод!".


*Определитесь, кто Вы:
робот инопланетянин человек

Внимание! Время в таблицах - всемирное. Для получения местного времени необходимо прибавить поправку, которая равна 2 ч.

Смотрите также архив погоды в соседних городах и на ближайших метеорологических станциях:

Погода в Джанкое (Крым, Россия) (60 км)
Погода в Стрелковом (Херсонская область, Украина) (72 км)
Погода в Аскании-Нове (Херсонская область, Украина) (79 км)
Погода в Нижнегорском (Крым, Россия) (80 км)
Погода в Ишуни (Крым, Россия) (82 км)
Погода в Нижних Серогозах (Херсонская область, Украина) (82 км)
Погода в Мелитополе (Запорожская область, Украина) (85 км)
Погода в Клепинино (Крым, Россия) (87 км)
Погода в Ботиево (Запорожская область, Украина) (97 км)
Погода в Хорлах (Херсонская область, Украина) (106 км)

Пояснения к столбцам:

Ветер - указаны скорость ветра в м/с - средняя за 10 мин, порывы в срок и между сроками (в фигурных скобках) и направление, откуда дует ветер: С - северный, СВ - северо-восточный, В - восточный, ЮВ - юго-восточный, Ю - южный, ЮЗ - юго-западный, З - западный, СЗ - северо-западный.
Видимость - горизонтальная дальность видимости в метрах или километрах. При видимости от 1 до 10 км при отсутствии осадков обычно наблюдается дымка, при ухудшении видимости до 1 км и менее - туман. В сухую погоду видимость может ухудшаться дымом, пылью или мглою.
Явления - указаны атмосферные явления, наблюдавшиеся в срок или в последний час перед сроком; фигурными скобками обозначены явления, наблюдавшиеся между сроками (за 1-3 часа до срока); квадратными скобками обозначены град или гололедные отложения с указанием их диаметра в мм.
Облачность - указаны через наклонную черту общая и нижняя облачность в баллах и высота нижней границы облаков в метрах; квадратными скобками обозначены формы облаков: Ci - перистые, Cs - перисто-слоистые, Cc - перисто-кучевые, Ac - высококучевые, As - высокослоистые, Sc - слоисто-кучевые, Ns - слоисто-дождевые, Cu - кучевые, Cb - кучево-дождевые. Подробнее классификацию облаков см. в Атласе облаков (PDF).
T - Температура воздуха - температура, измеренная на высоте 2 м над землей.
Td - Температура точки росы - температура, при понижении до которой содержащийся в воздухе водяной пар достигнет насыщения.
f - Относительная влажность воздуха - влажноcть воздуха, измеренная на высоте 2 м над землей.
Te - Эффективная температура - температура, которую ощущает одетый по сезону человек в тени. Характеристика душности погоды. При расчете учитывается влияние влажности воздуха и скорости ветра на теплоощущения человека.
Tes - Эффективная температура на солнце - температура, которую ощущает человек, с поправкой на солнечный нагрев. Характеристика знойности погоды. Зависит от высоты солнца над горизонтом, облачности и скорости ветра. Ночью, в пасмурную погоду, а также при ветре 12 м/с и более поправка равна нулю.
P - Атмосферное давление - приведенное к уровню моря атмосферное давление.
Po - Атмосферное давление - измеренное на уровне метеостанции атмосферное давление.
Tmin - Минимальная температура - минимум температуры воздуха на высоте 2 м над землей.
Tmax - Максимальная температура - максимум температуры воздуха на высоте 2 м над землей.
R - Количество осадков - Количество выпавших осадков за период времени, мм. При наведении курсора мыши на число - период времени, за который выпало указанное количество осадков.
R24 - Количество осадков - Количество выпавших осадков за 24 часа, мм.
S - Снежный покров - Высота снежного покрова, см. При наведении курсора мыши на число - состояние снежного покрова и степень покрытия местности в баллах.